Starlink 31215

operational
NORAD ID: 58872 Int'l Des: 2024-019 Owner: SPXS Country: US Constellation: starlink
LEOCIRCULAR

Starlink 31215について

説明を読み込み中...

リアルタイム位置

3D地球を読み込み中...

次回通過

高度履歴

Altitude vs Time

uPlot chart will show altitude changes over time

軌道要素

1 58872U 24019V 25354.23786354 .00000633 00000-0 32515-4 0 9995
2 58872 43.0017 337.4238 0001524 267.1584 92.9094 15.27577639106914
Epoch: Dec 20, 2025 • Age: 9 hours

現在のステータス

高度 483.3 km
速度 7.63 km/s
衛星直下点 -3.77°S, 15.22°E
打ち上げ日 Jan 29, 2024
運用期間 1.8 years
タイプ internet

技術仕様

分類 Payload
質量 730.00 kg
乾燥質量 700.00 kg
総質量 730.00 kg
長さ 0.30 m
直径 4.10 m
スパン 29.00 m
形状 Box + pan
製造者 SPXS
バスタイプ Starlink V2M
フェーズステータス In Orbit
所有者/国 SPXS/US

大規模コンステレーション

Loading constellations...